CW6575 Weather Reports


Display with metric or nautical units.
time (UTC)temp
F
wind
direction
speed
MPH
gust
MPH
rain 1hr
in
rain 24hr
in
rain mn
in
humidity
%
barometer
mb
20260505003047 59 156 2.0 3.0 0.00 0.00 0.00 64 1010.0
20260505001547 63 306 0.0 0.0 0.00 0.00 0.00 54 1010.1
20260505000050 65 306 0.0 2.0 0.00 0.00 0.00 50 1010.1
20260504234546 65 285 0.0 5.0 0.00 0.00 0.00 49 1010.1
20260504233045 66 295 0.0 5.0 0.00 0.00 0.00 49 1009.9
20260504231544 66 217 0.0 5.0 0.00 0.00 0.00 48 1009.8
20260504230044 67 250 1.0 4.0 0.00 0.00 0.00 47 1009.8
20260504224545 67 315 2.0 10.0 0.00 0.00 0.00 48 1009.7
20260504223043 67 331 0.0 4.0 0.00 0.00 0.00 50 1009.9
20260504221544 67 299 2.0 8.0 0.00 0.00 0.00 50 1009.9
20260504220053 65 114 0.0 3.0 0.00 0.00 0.00 58 1009.8
20260504214549 64 128 0.0 6.0 0.00 0.00 0.00 67 1010.0
20260504213048 63 164 2.0 3.0 0.00 0.00 0.00 63 1010.0
20260504211538 65 318 1.0 8.0 0.00 0.00 0.00 56 1010.1
20260504210039 67 333 5.0 10.0 0.00 0.00 0.00 46 1010.2
20260504204537 67 283 1.0 6.0 0.00 0.00 0.00 46 1009.9
20260504203036 68 360 2.0 9.0 0.00 0.00 0.00 47 1009.9
20260504201537 69 269 2.0 8.0 0.00 0.00 0.00 43 1009.8
20260504200042 71 313 2.0 10.0 0.00 0.00 0.00 40 1009.6
20260504194538 71 278 1.0 8.0 0.00 0.00 0.00 43 1009.6
20260504193032 70 295 3.0 8.0 0.00 0.00 0.00 41 1009.9
20260504191543 69 132 3.0 10.0 0.00 0.00 0.00 45 1010.1
20260504190026 69 340 1.0 8.0 0.00 0.00 0.00 47 1010.5
20260504184522 68 229 2.0 13.0 0.00 0.00 0.00 46 1010.7
20260504183036 68 335 2.0 13.0 0.00 0.00 0.00 47 1010.9
20260504181524 67 298 3.0 11.0 0.00 0.00 0.00 50 1011.0
20260504180020 67 319 2.0 8.0 0.00 0.00 0.00 52 1011.2
20260504174515 65 159 5.0 21.0 0.00 0.00 0.00 51 1011.4
20260504173008 64 155 2.0 9.0 0.00 0.00 0.00 54 1011.9
20260504171508 65 92 6.0 10.0 0.00 0.00 0.00 52 1012.0
20260504081558 48 149 2.0 5.0 0.00 0.00 0.00 59 1015.3
20260504044537 45 152 1.0 2.0 0.00 0.00 0.00 71 1016.0
20260504043029 45 152 1.0 2.0 0.00 0.00 0.00 70 1016.0
20260504041528 45 153 2.0 5.0 0.00 0.00 0.00 64 1016.0
20260504040024 45 171 2.0 4.0 0.00 0.00 0.00 65 1016.1
20260504034531 44 167 3.0 4.0 0.00 0.00 0.00 69 1016.2
20260504033022 44 167 1.0 3.0 0.00 0.00 0.00 72 1016.1
20260504031523 44 167 2.0 3.0 0.00 0.00 0.00 72 1016.2
20260504030037 44 167 2.0 4.0 0.00 0.00 0.00 71 1016.2
20260504024521 44 167 2.0 4.0 0.00 0.00 0.00 70 1016.3
20260504023022 44 167 1.0 4.0 0.00 0.00 0.00 70 1016.3
20260504021520 44 167 0.0 2.0 0.00 0.00 0.00 68 1016.4
20260504020019 44 167 2.0 3.0 0.00 0.00 0.00 67 1016.4
20260504014532 44 167 2.0 3.0 0.00 0.00 0.00 69 1016.4
20260504013018 44 191 0.0 2.0 0.00 0.00 0.00 68 1016.3
20260504011518 44 191 0.0 2.0 0.00 0.00 0.00 63 1016.1
20260504010020 45 303 0.0 2.0 0.00 0.00 0.00 62 1015.9
20260504004517 47 298 0.0 1.0 0.00 0.00 0.00 52 1015.8